Showing default

HAWK-10A, 60540

Orbit data source: Space-Track

HAWK-10A, 60540 is a payload satellite owned by HawkEye 360 (US) in SSO that was launched on Fri, 16 Aug 2024 UTC via an FALCON 9 launch vehicle from the Air Force Western Test Range (AFWTR). Payload-class satellites include a variety of spacecraft equipped with specific instruments for various scientific and technological missions. These include communications satellites like Starlink; space stations such as the ISS; scientific satellites like the Hubble; Earth observation satellites from companies like Planet Labs, Umbra, and HawkEye 360; GPS; miniature CubeSats for education and research; and military/defense satellites.

Loading next visibility...
Identifier
60540, 2024-149CA
Orbit
SSO
Country
Flag of USUS
Related business
Manufacturer
UTIAS-SFL
Mission
Operational Commercial Sigint
Bus & Motor
HAWK2G, Unknown motor
Mass
31 kg wet, 30 kg dry
Launch date (UTC)
2024-08-16 (2 years ago)
Launch vehicle
FALCON 9
Launch site
Air Force Western Test Range (AFWTR)
Object type
Payload
Rocket body
Debris
Shape & HBR
Box + 2 Pan, 1.0 m
Radar Cross Section
0.240 m², Medium (>0.1 m² and < 1m²)

Expand to show TLE details & history
Last TLE update: 19 hours ago

TLE from 19 hours ago
0 HAWK-10A
1 60540U 24149CA  26175.19023161  .00000742  00000-0  70287-4 0  9990
2 60540  97.6894 250.9815 0004514  60.3953 299.7718 14.96531916101033
Epoch: 2026-06-24T04:33Z
TLE epoch observation values (Epoch: 2026-06-24T04:33:56.011Z)
Latitude
0.00002°
Longitude
-89.85288°
Altitude
579.114 km
Speed
7.572 km/s
True Right ascension
16h 43m 55s
True Declination
0° 00' 00"
Sunlit
Object was in full shadow at epoch
Visualization orbit readout
Latitude
Unknown
Longitude
Unknown
Altitude
Unknown
Speed
Unknown
Apparent Right ascension
Unknown
Apparent Declination
Unknown
Sunlit
N/A
Visualization observer readout
Local Sidereal Time
10:49:01
Azimuth
Unknown
Elevation
Unknown
Doppler factor
Unknown
Orbital elements
Apogee altitude
577.77 km
Perigee altitude
571.493 km
Semi-major axis
6,952.768 km
Eccentricity
0.00045
Inclination
97.6894°
RAAN
250.9815°
Arg. of periapsis
60.3953°
True anomaly
299.72689°
Mean anomaly
299.7718°
Eccentric anomaly
299.74935°
Mean motion
3.74375 °/min
Orbital period
96.16 mins
BSTAR
0.000070287
Loading maneuver chart data...
Computing Atmospheric mass density...
Loading historical data...
Loading historical data...
Loading historical data...
Loading historical data...
Loading historical data...
Loading historical data...
Loading historical data...

Documentation

Showing up to 5 results
|